San Jose, Costa Rica

3:42 AM CST on May 24, 2017 (GMT -0600)
Juan Santamaria International

Weather History for MROC - May, 2014

Change the Weather History Date:

Thursday, May 29, 2014

  Actual Average Record
Temperature  
Mean Temperature 74 °F -  
Max Temperature 85 °F 80 °F 86 °F (2015)
Min Temperature 63 °F 65 °F 62 °F (2000)
Cooling Degree Days 9    
Growing Degree Days 24 (Base 50)    
Moisture  
Dew Point 64 °F    
Average Humidity 74    
Maximum Humidity 94    
Minimum Humidity 38    
Precipitation  
Precipitation 0.03 in 0.37 in - ()
Sea Level Pressure  
Sea Level Pressure 29.97 in    
Wind  
Wind Speed 5 mph ()    
Max Wind Speed 12 mph    
Max Gust Speed -    
Visibility 7.9 miles    
Events Fog , Rain , Thunderstorm    
Averages and records for this station are not official NWS values.
T = Trace of Precipitation, MM = Missing Value Source: Averaged Metar Reports

Daily Weather History Graph

Daily Weather History Graph

Search for Another Location

Airport or City:

Trip Planner

Search our weather history database for the weather conditions in past years. The results will help you decide how hot, cold, wet, or windy it might be!

Date:

Astronomy

May. 29, 2014 Rise Set
Actual Time 5:14 AM CST 5:54 PM CST
Civil Twilight 4:51 AM CST 6:16 PM CST
Nautical Twilight 4:25 AM CST 6:43 PM CST
Astronomical Twilight 3:58 AM CST 7:10 PM CST
Moon 5:58 AM CST (5/29) 6:51 PM CST (5/29)
Length of Visible Light 13h 25m
Length of Day
12h 39m
New Moon, 1% of the Moon is Illuminated
May 29
New Moon
Jun 5
First Quarter
Jun 12
Full
Jun 19
Last Quarter
Jun 27
New

Hourly Weather History & Observations

Time (CST) Temp. Heat Index Dew Point Humidity Pressure Visibility Wind Dir Wind Speed Gust Speed Precip Events Conditions
12:00 AM 69 °F - 62 °F 71% 29.88 in 12 mi East 2.3 mph - -   Mostly Cloudy
12:00 AM 68.0 °F - 60.8 °F 78% 30.04 in - East 2.3 mph - N/A   Clear
1:00 AM 66.2 °F - 60.8 °F 83% 30.02 in - East 4.6 mph - N/A   Clear
2:00 AM 66.2 °F - 60.8 °F 83% 30.01 in - East 6.9 mph - N/A   Clear
3:00 AM 66 °F - 60 °F 76% 29.85 in 12 mi NE 8.1 mph - -   Partly Cloudy
3:00 AM 66.2 °F - 60.8 °F 83% 30.00 in - NE 8.1 mph - N/A   Clear
4:00 AM 64.4 °F - 60.8 °F 88% 30.00 in - ESE 3.5 mph - N/A   Clear
5:00 AM 64.4 °F - 59.0 °F 83% 30.00 in - NE 5.8 mph - N/A   Clear
6:00 AM 65 °F - 59 °F 76% 29.90 in 12 mi ESE 5.8 mph - -   Scattered Clouds
6:00 AM 64.4 °F - 59.0 °F 83% 30.01 in - ESE 5.8 mph - N/A   Clear
7:00 AM 71.6 °F - 60.8 °F 69% 30.02 in - East 5.8 mph - N/A   Clear
8:00 AM 77.0 °F - 60.8 °F 57% 30.03 in - East 6.9 mph - N/A   Clear
9:00 AM 81 °F - 60 °F 38% 29.87 in 12 mi East 5.8 mph - -   Clear
9:00 AM 80.6 °F 81.1 °F 59.0 °F 48% 30.03 in - East 5.8 mph - N/A   Clear
10:00 AM 82.4 °F 83.9 °F 64.4 °F 54% 30.03 in 6.2 mi WSW 6.9 mph - N/A   Mostly Cloudy
11:00 AM 82.4 °F 84.6 °F 66.2 °F 58% 30.03 in 6.2 mi WSW 11.5 mph - N/A   Mostly Cloudy
12:00 PM 81 °F - 67 °F 54% 29.86 in 12 mi WSW 10.4 mph - -   Scattered Clouds
12:00 PM 80.6 °F 83.2 °F 68.0 °F 65% 30.02 in 6.2 mi WSW 10.4 mph - N/A   Scattered Clouds
1:00 PM 82.4 °F 85.4 °F 68.0 °F 62% 29.98 in 6.2 mi WSW 11.5 mph - N/A   Mostly Cloudy
2:00 PM 80.6 °F 82.7 °F 66.2 °F 61% 29.96 in 6.2 mi WSW 11.5 mph - N/A   Mostly Cloudy
3:00 PM 75 °F - 66 °F 67% 29.83 in 9 mi West 9.2 mph - - Rain Heavy Rain
3:00 PM 75.2 °F - 66.2 °F 73% 29.96 in 6.2 mi West 9.2 mph - N/A Rain , Thunderstorm Thunderstorms and Rain
4:00 PM 69.8 °F - 64.4 °F 83% 29.96 in 6.2 mi NNW 4.6 mph - N/A Rain Light Rain
5:00 PM 73.4 °F - 66.2 °F 78% 29.97 in 6.2 mi SW 2.3 mph - N/A   Mostly Cloudy
6:00 PM 71 °F - 67 °F 84% 29.88 in 12 mi West 3.5 mph - -   Partly Cloudy
6:00 PM 71.6 °F - 68.0 °F 88% 29.99 in 6.2 mi West 3.5 mph - N/A   Mostly Cloudy
7:00 PM 69.8 °F - 68.0 °F 94% 30.01 in 6.2 mi NW 2.3 mph - N/A   Mostly Cloudy
8:00 PM 69.8 °F - 60.8 °F 73% 30.02 in 6.2 mi Calm Calm - N/A Fog Mostly Cloudy
9:00 PM 71 °F - 67 °F 85% 29.87 in 6 mi West 2.3 mph - - Fog Patches of Fog
9:00 PM 71.6 °F - 68.0 °F 88% 30.03 in 6.2 mi West 2.3 mph - N/A Fog Patches of Fog
10:00 PM 71.6 °F - 68.0 °F 88% 30.04 in 6.2 mi SW 2.3 mph - N/A Fog Patches of Fog
11:00 PM 71.6 °F - 68.0 °F 88% 30.04 in 6.2 mi NNW 2.3 mph - N/A   Mostly Cloudy